Orbital Elements at Epoch 2459000.5 (2020-May-31.0) TDB
Reference: JPL 14 (heliocentric ecliptic J2000)
Element | Value | Uncertainty (1-sigma) | Units |
e | .2151175859810581 | 5.9492e-08 | |
a | 2.217895501927945 | 1.271e-08 | au |
q | 1.740787175594958 | 1.3521e-07 | au |
i | 4.361073210510777 | 5.7789e-06 | deg |
node | 96.72376441700513 | 7.1016e-05 | deg |
peri | 267.7034305755059 | 7.5035e-05 | deg |
M | 269.8733835326248 | 2.0221e-05 | deg |
tp | 2459302.537323693453 (2021-Mar-29.03732369) | 6.8938e-05 | TDB |
period | 1206.451998217455 3.30 | 1.037e-05 2.839e-08 | d yr |
n | .298395626624104 | 2.5649e-09 | deg/d |
Q | 2.695003828260932 | 1.5444e-08 | au |
|
| | Orbit Determination Parameters
Additional Information
|